timestamp,surface_pressure_avg,surface_temp_avg,battery_voltage,lat,long
2024-04-09 00:09:00+00:00,402.3712,0.6,11.93,47.84626,-54.09684
2024-04-09 00:19:00+00:00,399.4879,0.6,11.93,47.84626,-54.09684
2024-04-09 00:29:00+00:00,392.2145,0.6,11.93,47.84626,-54.09684
2024-04-09 00:39:00+00:00,390.0446,0.6,11.93,47.84626,-54.09684
2024-04-09 00:49:00+00:00,388.2629,0.6,11.93,47.84626,-54.09684
2024-04-09 00:59:00+00:00,380.1846,0.6,11.93,47.84626,-54.09684
2024-04-09 01:09:00+00:00,372.798,0.6,11.93,47.84626,-54.09684
2024-04-09 01:19:00+00:00,370.4295,0.6,11.93,47.84626,-54.09684
2024-04-09 01:29:00+00:00,366.4763,0.6,11.93,47.84626,-54.09684
2024-04-09 01:39:00+00:00,358.1879,0.6,11.93,47.84626,-54.09684
2024-04-09 01:49:00+00:00,350.4779,0.6,11.93,47.84626,-54.09684
2024-04-09 01:59:00+00:00,343.2579,0.7,11.93,47.84626,-54.09684
2024-04-09 02:09:00+00:00,332.7797,0.73,11.93,47.84626,-54.09684
2024-04-09 02:19:00+00:00,319.5164,0.75,11.93,47.84626,-54.09684
2024-04-09 02:29:00+00:00,306.3997,0.7,11.93,47.84626,-54.09684
2024-04-09 02:39:00+00:00,295.1731,0.73,11.93,47.84626,-54.09684
2024-04-09 02:49:00+00:00,284.6965,0.8,11.93,47.84626,-54.09684
2024-04-09 02:59:00+00:00,273.2997,0.73,11.93,47.84626,-54.09684
2024-04-09 03:09:00+00:00,261.6131,0.8,11.93,47.84626,-54.09684
2024-04-09 03:19:00+00:00,249.408,0.7,11.93,47.84626,-54.09684
2024-04-09 03:29:00+00:00,238.2381,0.7,11.93,47.84626,-54.09684
2024-04-09 03:39:00+00:00,227.3231,0.7,11.93,47.84626,-54.09684
2024-04-09 03:49:00+00:00,217.4998,0.7,11.93,47.84626,-54.09684
2024-04-09 03:59:00+00:00,209.2997,0.7,11.93,47.84626,-54.09684
2024-04-09 04:09:00+00:00,202.1081,0.7,11.93,47.84626,-54.09684
2024-04-09 04:19:00+00:00,194.3048,0.7,11.93,47.84626,-54.09684
2024-04-09 04:29:00+00:00,189.5231,0.7,11.93,47.84626,-54.09684
2024-04-09 04:39:00+00:00,187.0415,0.7,11.93,47.84626,-54.09684
2024-04-09 04:49:00+00:00,181.5515,0.7,11.93,47.84626,-54.09684
2024-04-09 04:59:00+00:00,175.5815,0.7,11.93,47.84626,-54.09684
2024-04-09 05:09:00+00:00,173.8648,0.7,11.93,47.84626,-54.09684
2024-04-09 05:19:00+00:00,172.7015,0.69,11.93,47.84626,-54.09684
2024-04-09 05:29:00+00:00,167.8965,0.63,11.93,47.84626,-54.09684
2024-04-09 05:39:00+00:00,166.5565,0.6,11.93,47.84626,-54.09684
2024-04-09 05:49:00+00:00,170.2132,0.6,11.93,47.84626,-54.09684
2024-04-09 05:59:00+00:00,170.3515,0.6,11.93,47.84626,-54.09684
2024-04-09 06:09:00+00:00,169.0081,0.6,11.93,47.84626,-54.09684
2024-04-09 06:19:00+00:00,174.3848,0.6,11.93,47.84626,-54.09684
2024-04-09 06:29:00+00:00,181.1465,0.6,11.93,47.84626,-54.09684
2024-04-09 06:39:00+00:00,181.9465,0.6,11.93,47.84626,-54.09684
2024-04-09 06:49:00+00:00,182.1515,0.6,11.93,47.84626,-54.09684
2024-04-09 06:59:00+00:00,190.3248,0.6,11.93,47.84626,-54.09684
2024-04-09 07:09:00+00:00,198.5348,0.56,11.93,47.84626,-54.09684
2024-04-09 07:19:00+00:00,200.0847,0.5,11.93,47.84626,-54.09684
2024-04-09 07:29:00+00:00,204.4131,0.5,11.93,47.84626,-54.09684
2024-04-09 07:39:00+00:00,212.6981,0.5,11.93,47.84626,-54.09684
2024-04-09 07:49:00+00:00,218.6148,0.5,11.93,47.84626,-54.09684
2024-04-09 07:59:00+00:00,221.4898,0.5,11.93,47.84626,-54.09684
2024-04-09 08:09:00+00:00,227.7598,0.5,11.93,47.84626,-54.09684
2024-04-09 08:19:00+00:00,237.0315,0.5,11.93,47.84626,-54.09684
2024-04-09 08:29:00+00:00,243.2781,0.47,11.93,47.84626,-54.09684
2024-04-09 08:39:00+00:00,247.3581,0.49,11.93,47.84626,-54.09684
2024-04-09 08:49:00+00:00,254.6281,0.45,11.93,47.84626,-54.09684
2024-04-09 08:59:00+00:00,261.7598,0.42,11.93,47.84626,-54.09684
2024-04-09 09:09:00+00:00,266.3548,0.41,11.93,47.84626,-54.09684
2024-04-09 09:19:00+00:00,272.3564,0.43,11.86,47.84626,-54.09684
2024-04-09 09:29:00+00:00,283.0131,0.41,11.86,47.84626,-54.09684
2024-04-09 09:39:00+00:00,293.2363,0.46,11.86,47.84626,-54.09684
2024-04-09 09:49:00+00:00,300.5297,0.46,11.86,47.84626,-54.09684
2024-04-09 09:59:00+00:00,310.913,0.47,11.86,47.84626,-54.09684
2024-04-09 10:09:00+00:00,323.1247,0.4,11.86,47.84626,-54.09684
2024-04-09 10:19:00+00:00,334.1313,0.42,11.93,47.84626,-54.09684
2024-04-09 10:29:00+00:00,341.7513,0.4,11.93,47.84626,-54.09684
2024-04-09 10:39:00+00:00,349.9962,0.4,11.93,47.84626,-54.09684
2024-04-09 10:49:00+00:00,358.9762,0.4,11.93,47.84626,-54.09684
2024-04-09 10:59:00+00:00,366.8929,0.4,11.93,47.84626,-54.09684
2024-04-09 11:09:00+00:00,372.2897,0.4,11.93,47.84626,-54.09684
2024-04-09 11:19:00+00:00,378.5746,0.4,11.93,47.84626,-54.09684
2024-04-09 11:29:00+00:00,385.1396,0.4,11.93,47.84626,-54.09684
2024-04-09 11:39:00+00:00,388.2612,0.4,11.93,47.84626,-54.09684
2024-04-09 11:49:00+00:00,389.3146,0.4,11.93,47.84626,-54.09684
2024-04-09 11:59:00+00:00,393.2979,0.4,11.93,47.84626,-54.09684
2024-04-09 12:09:00+00:00,396.9163,0.4,11.93,47.84626,-54.09684
2024-04-09 12:19:00+00:00,397.5512,0.4,12.09,47.84626,-54.09684
2024-04-09 12:29:00+00:00,396.9612,0.4,12.09,47.84626,-54.09684
2024-04-09 12:39:00+00:00,397.1029,0.4,12.09,47.84626,-54.09684
2024-04-09 12:49:00+00:00,395.5179,0.4,12.09,47.84626,-54.09684
2024-04-09 12:59:00+00:00,391.43800000000016,0.4,12.09,47.84626,-54.09684
2024-04-09 13:09:00+00:00,386.8162,0.4,12.09,47.84626,-54.09684
2024-04-09 13:19:00+00:00,382.0796,0.4,12.25,47.84626,-54.09684
2024-04-09 13:29:00+00:00,375.9512,0.4,12.25,47.84626,-54.09684
2024-04-09 13:39:00+00:00,369.0813,0.4,12.25,47.84626,-54.09684
2024-04-09 13:49:00+00:00,365.4263,0.4,12.25,47.84626,-54.09684
2024-04-09 13:59:00+00:00,359.2796,0.4,12.25,47.84626,-54.09684
2024-04-09 14:09:00+00:00,349.3013,0.4,12.25,47.84626,-54.09684
2024-04-09 14:19:00+00:00,341.3046,0.44,12.25,47.84626,-54.09684
2024-04-09 14:29:00+00:00,334.0447,0.46,12.25,47.84626,-54.09684
2024-04-09 14:39:00+00:00,322.6396,0.4,12.25,47.84626,-54.09684
2024-04-09 14:49:00+00:00,310.4246,0.4,12.25,47.84626,-54.09684
2024-04-09 14:59:00+00:00,300.3546,0.47,12.25,47.84626,-54.09684
2024-04-09 15:09:00+00:00,289.6297,0.48,12.25,47.84626,-54.09684
2024-04-09 15:19:00+00:00,275.3997,0.5,12.25,47.84626,-54.09684
2024-04-09 15:29:00+00:00,264.6231,0.5,12.25,47.84626,-54.09684
2024-04-09 15:39:00+00:00,255.9731,0.5,12.25,47.84626,-54.09684
2024-04-09 15:49:00+00:00,246.3264,0.49,12.25,47.84626,-54.09684
2024-04-09 15:59:00+00:00,233.058,0.59,12.25,47.84626,-54.09684
2024-04-09 16:09:00+00:00,224.9314,0.56,12.25,47.84626,-54.09684
2024-04-09 16:19:00+00:00,220.6664,0.58,12.41,47.84626,-54.09684
2024-04-09 16:29:00+00:00,212.4681,0.6,12.41,47.84626,-54.09684
2024-04-09 16:39:00+00:00,203.7732,0.67,12.41,47.84626,-54.09684
2024-04-09 16:49:00+00:00,200.0931,0.69,12.41,47.84626,-54.09684
2024-04-09 16:59:00+00:00,196.9798,0.69,12.41,47.84626,-54.09684
2024-04-09 17:09:00+00:00,189.6414,0.7,12.41,47.84626,-54.09684
2024-04-09 17:19:00+00:00,186.2082,0.7,12.25,47.84626,-54.09684
2024-04-09 17:29:00+00:00,186.7098,0.7,12.25,47.84626,-54.09684
2024-04-09 17:39:00+00:00,185.8964,0.7,12.25,47.84626,-54.09684
2024-04-09 17:49:00+00:00,184.3515,0.79,12.25,47.84626,-54.09684
2024-04-09 17:59:00+00:00,184.8531,0.8,12.25,47.84626,-54.09684
2024-04-09 18:09:00+00:00,185.9998,0.8,12.25,47.84626,-54.09684
2024-04-09 18:19:00+00:00,187.7831,0.8,12.25,47.84626,-54.09684
2024-04-09 18:29:00+00:00,190.6981,0.86,12.25,47.84626,-54.09684
2024-04-09 18:39:00+00:00,194.1898,0.9,12.25,47.84626,-54.09684
2024-04-09 18:49:00+00:00,197.2798,0.9,12.25,47.84626,-54.09684
2024-04-09 18:59:00+00:00,201.0464,0.9,12.25,47.84626,-54.09684
2024-04-09 19:09:00+00:00,206.2781,0.9,12.25,47.84626,-54.09684
2024-04-09 19:19:00+00:00,210.1098,0.9,12.25,47.84626,-54.09684
2024-04-09 19:29:00+00:00,213.3748,0.9,12.25,47.84626,-54.09684
2024-04-09 19:39:00+00:00,219.9564,0.9,12.25,47.84626,-54.09684
2024-04-09 19:49:00+00:00,225.0365,0.9,12.25,47.84626,-54.09684
2024-04-09 19:59:00+00:00,228.3814,0.9,12.25,47.84626,-54.09684
2024-04-09 20:09:00+00:00,234.4598,0.9,12.25,47.84626,-54.09684
2024-04-09 20:19:00+00:00,239.8015,0.88,12.17,47.84626,-54.09684
2024-04-09 20:29:00+00:00,244.5648,0.88,12.17,47.84626,-54.09684
2024-04-09 20:39:00+00:00,250.2964,0.88,12.17,47.84626,-54.09684
2024-04-09 20:49:00+00:00,257.8181,0.8,12.17,47.84626,-54.09684
2024-04-09 20:59:00+00:00,264.1031,0.8,12.17,47.84626,-54.09684
2024-04-09 21:09:00+00:00,269.1364,0.81,12.17,47.84626,-54.09684
2024-04-09 21:19:00+00:00,274.938,0.8,12.09,47.84626,-54.09684
2024-04-09 21:29:00+00:00,283.0297,0.8,12.09,47.84626,-54.09684
2024-04-09 21:39:00+00:00,290.1064,0.8,12.09,47.84626,-54.09684
2024-04-09 21:49:00+00:00,297.2297,0.8,12.09,47.84626,-54.09684
2024-04-09 21:59:00+00:00,305.2547,0.79,12.09,47.84626,-54.09684
2024-04-09 22:09:00+00:00,314.8946,0.76,12.09,47.84626,-54.09684
2024-04-09 22:19:00+00:00,325.0413,0.76,12.01,47.84626,-54.09684
2024-04-09 22:29:00+00:00,335.218,0.76,12.01,47.84626,-54.09684
2024-04-09 22:39:00+00:00,347.50300000000016,0.76,12.01,47.84626,-54.09684
2024-04-09 22:49:00+00:00,357.6263,0.78,12.01,47.84626,-54.09684
2024-04-09 22:59:00+00:00,366.9395,0.72,12.01,47.84626,-54.09684
2024-04-09 23:09:00+00:00,375.62800000000004,0.77,12.01,47.84626,-54.09684
2024-04-09 23:19:00+00:00,382.5513,0.79,12.01,47.84626,-54.09684
2024-04-09 23:29:00+00:00,388.5529,0.76,12.01,47.84626,-54.09684
2024-04-09 23:39:00+00:00,393.5913,0.72,12.01,47.84626,-54.09684
2024-04-09 23:49:00+00:00,399.3812,0.7,12.01,47.84626,-54.09684
2024-04-09 23:59:00+00:00,403.343,0.69,12.01,47.84626,-54.09684
